Home   Weather   Erfurt   Past weeks

Flag for Germany Past Weather in Erfurt, Thuringia, Germany — Yesterday and Last 2 Weeks

Now
27 °F

Passing clouds.


Feels Like: 17 °F
Forecast: 20 / 25 °F
Wind: 9 mph from North

Location: Erfurt-Bindersleben

Current Time: Jan 16, 2017 at 12:10:09 pm

Latest Report: Jan 16, 2017 at 11:50 am


Visibility: N/A

Pressure: 30.24 "Hg

Humidity: 80%

Dew Point: 21 °F

Location of ErfurtLocation

Past Weather in Erfurt — Graph

°F

Erfurt Temperature Yesterday

Maximum temperature yesterday: 32 °F (at 12:20 am)
Minimum temperature yesterday: 28 °F (at 4:20 am)
Average temperature yesterday: 30 °F

High & Low Weather Summary for the Past Weeks

 TemperatureHumidityPressure
High39 °F (Jan 12, 11:20 am)100% (Jan 2, 5:50 am)30.72 "Hg (Jan 2, 5:50 am)
Low7 °F (Jan 6, 2:50 am)54% (Jan 7, 12:20 pm)29.00 "Hg (Jan 13, 3:50 am)
Average29 °F85%30.01 "Hg
* Reported Jan 1 11:20 am — Jan 16 11:20 am, Erfurt, Weather by CustomWeather, © 2017

Note: Actual official high and low records may vary slightly from our data, if they occured in-between our weather recording intervals... More about our weather records

Advertising

Erfurt Weather History for the Previous 24 Hours

Scroll right to see more
 ConditionsComfort  
Time TempWeatherWind HumidityBarometerVisibility
11:20 am
Mon, Jan 16
27 °FPassing clouds.7 mph74%30.24 "HgN/A
10:50 am25 °FPassing clouds.6 mph80%30.24 "HgN/A
10:20 am25 °FPassing clouds.7 mph80%30.24 "HgN/A
9:50 am25 °FPartly sunny.7 mph86%30.21 "HgN/A
9:20 am25 °FPartly sunny.8 mph86%30.21 "HgN/A
8:50 am23 °FPartly sunny.7 mph93%30.21 "HgN/A
8:20 am21 °FPartly sunny.9 mph93%30.18 "HgN/A
7:50 am21 °FPassing clouds.7 mph93%30.18 "HgN/A
7:20 am21 °FPassing clouds.6 mph93%30.18 "HgN/A
6:50 am21 °FPassing clouds.6 mph93%30.15 "HgN/A
6:20 am23 °FPassing clouds.8 mph86%30.15 "HgN/A
5:50 am25 °FPassing clouds.7 mph86%30.15 "HgN/A
5:20 am27 °FPassing clouds.8 mph86%30.15 "HgN/A
4:50 am27 °FPassing clouds.8 mph86%30.15 "HgN/A
4:20 am27 °FPassing clouds.8 mph86%30.15 "HgN/A
3:50 am27 °FPassing clouds.8 mph86%30.12 "HgN/A
3:20 am28 °FPassing clouds.9 mph80%30.12 "HgN/A
2:50 am28 °FPassing clouds.10 mph80%30.12 "HgN/A
2:20 am28 °FPassing clouds.10 mph80%30.12 "HgN/A
1:50 am27 °FPartly cloudy.9 mph93%30.12 "HgN/A
1:20 am28 °FPartly cloudy.12 mph86%30.12 "HgN/A
12:50 am28 °FPassing clouds.13 mph86%30.12 "HgN/A
12:20 am28 °FPartly cloudy.13 mph86%30.12 "HgN/A
11:50 pm
Sun, Jan 15
28 °FPartly cloudy.13 mph86%30.09 "HgN/A
11:20 pm28 °FLight snow. Partly cloudy.12 mph93%30.09 "Hg4 mi
10:50 pm28 °FLight snow. Partly cloudy.12 mph86%30.09 "Hg3 mi
10:20 pm28 °FLight snow. Partly cloudy.9 mph93%30.09 "Hg4 mi
9:50 pm28 °FLight snow. Passing clouds.10 mph93%30.09 "Hg4 mi
9:20 pm28 °FLight snow. Mostly cloudy.10 mph93%30.09 "Hg2 mi
8:50 pm28 °FLight snow. Mostly cloudy.10 mph93%30.09 "Hg2 mi
8:20 pm28 °FLight snow. Mostly cloudy.10 mph93%30.07 "Hg3 mi
7:50 pm28 °FLight snow. Mostly cloudy.10 mph93%30.07 "HgN/A
7:20 pm28 °FLight snow. Mostly cloudy.10 mph93%30.07 "HgN/A
6:50 pm28 °FLight snow. Partly cloudy.10 mph93%30.07 "HgN/A
6:20 pm28 °FLight snow. Partly cloudy.10 mph93%30.07 "HgN/A
5:50 pm28 °FLight snow. Passing clouds.10 mph93%30.04 "HgN/A
5:20 pm28 °FSnow. Passing clouds.12 mph93%30.04 "Hg5 mi
4:50 pm30 °FSnow flurries. Partly cloudy.10 mph86%30.04 "HgN/A
4:20 pm30 °FPartly sunny.10 mph80%30.04 "HgN/A
3:50 pm30 °FPassing clouds.9 mph80%30.04 "HgN/A
3:20 pm32 °FPassing clouds.8 mph75%30.04 "HgN/A
2:50 pm30 °FPassing clouds.9 mph80%30.04 "HgN/A
2:20 pm30 °FSnow flurries. Scattered clouds.8 mph86%30.04 "HgN/A
1:50 pm32 °FSnow flurries. Scattered clouds.9 mph80%30.01 "HgN/A
1:20 pm32 °FPassing clouds.13 mph80%30.01 "HgN/A
12:50 pm30 °FScattered clouds.14 mph80%30.01 "HgN/A
12:20 pm30 °FScattered clouds.15 mph80%30.01 "HgN/A
Weather by CustomWeather, © 2017

See weather overviewHow to use our weather pages